RH
98 95 87 82 82 80 79 78 78 78 78 77 77 77 78 77 75 71 70 70 72 72 71 75 74 72 70 71 71 70 68 68 68 72 78 78 72 71 68 64 65 69 67
95 90 88 85 80 80 80 81 82 82 83 81 81 82 81 80 81 82 82 81 81 79 78 75 74 75 76 76 76 76 74 72 73 75 80 80 76 75 69 72 69 68 61
93 86 84 86 82 81 82 83 86 82 82 80 77 75 74 76 77 77 78 78 78 77 76 78 79 81 83 81 80 80 79 79 79 81 85 88 78 70 72 77 78 74 67
89 89 87 87 83 84 84 82 81 80 78 78 78 76 74 74 72 71 71 70 70 71 72 73 74 77 79 81 83 83 81 82 86 89 92 83 78 72 71 73 69 69 74
94 91 89 86 83 82 80 80 78 77 76 75 72 71 68 66 64 66 66 67 68 67 66 65 65 67 69 73 76 78 80 87 92 91 96 95 93 70 73 70 68 67 70
96 91 87 86 81 79 77 76 73 71 69 68 65 62 62 62 64 67 68 69 69 69 67 67 66 64 66 65 65 67 71 76 81 96 97 93 86 73 68 70 70 70 71
90 86 82 80 78 77 75 72 69 66 63 62 60 60 60 62 64 64 64 64 64 64 62 63 63 63 64 63 61 60 61 70 76 85 90 95 92 80 68 67 67 67 68
82 82 78 81 76 73 71 67 65 62 58 56 59 60 60 60 58 57 60 60 61 62 61 62 60 60 61 61 61 64 65 77 72 79 74 77 77 71 67 70 70 73 76
75 79 82 78 75 73 69 66 61 58 59 59 60 62 62 60 59 58 58 58 59 60 56 61 55 55 54 58 61 64 76 79 85 73 60 66 71 69 70 75 76 76 77
71 77 80 76 73 78 77 68 68 65 63 62 62 61 66 66 63 62 64 62 58 58 55 55 55 55 57 60 63 65 74 67 68 72 96 84 76 74 75 77 77 74 77
60 68 74 66 63 74 73 73 72 69 68 63 62 67 67 66 65 66 73 69 58 55 53 53 54 55 58 62 65 68 65 67 78 97 97 78 69 66 68 69 70 72 74
63 60 58 61 63 65 53 74 71 64 66 60 61 61 65 65 73 62 71 63 57 56 55 54 55 55 56 60 64 63 62 72 93 94 95 75 64 65 66 69 71 72 72
62 64 61 58 60 61 64 69 73 74 72 68 64 62 64 61 66 67 68 65 63 59 59 58 58 56 58 60 60 58 58 72 98 99 88 78 68 67 69 71 73 73 74
65 66 65 65 63 67 72 70 70 71 70 70 66 62 67 68 67 65 64 63 65 66 63 65 64 58 57 57 57 55 59 73 99 99 92 83 76 72 68 69 70 70 70
69 70 68 67 69 67 70 75 69 70 70 71 66 63 66 66 66 64 64 64 66 67 68 67 64 62 62 59 54 57 68 85 98 98 95 86 78 73 71 70 70 70 69
69 71 70 68 70 70 73 72 70 70 71 72 66 64 60 65 64 66 66 66 68 70 69 67 67 67 66 64 57 65 85 94 96 95 86 85 77 74 71 70 71 72 72
70 71 70 70 71 72 72 72 71 68 65 70 68 61 58 59 61 66 69 68 69 70 65 64 63 66 67 60 64 67 84 94 95 85 83 88 83 73 70 70 70 70 70
76 71 69 60 70 72 72 73 68 69 67 71 70 67 58 56 59 65 67 68 67 68 68 65 68 68 71 70 68 78 87 83 79 76 73 74 75 72 74 68 67 68 69
73 71 70 69 70 71 70 71 71 69 69 71 72 69 61 56 57 64 66 67 65 68 68 66 66 72 74 73 60 70 86 88 83 69 77 74 74 71 74 64 64 65 65
71 70 68 69 68 70 73 74 75 74 73 74 71 66 61 59 58 64 65 64 66 67 68 66 66 69 74 79 56 61 76 85 85 87 83 71 73 70 70 66 68 70 61
72 70 69 70 68 74 76 75 76 74 75 75 75 63 61 61 60 65 68 65 66 67 68 65 69 73 71 80 74 70 78 87 86 85 89 85 73 69 68 66 67 70 66
71 72 72 69 68 71 74 73 72 74 76 74 76 70 66 62 64 65 63 67 66 69 67 67 66 72 75 78 80 83 72 68 72 76 81 73 81 71 65 61 60 62 69
70 75 71 68 67 70 70 76 77 77 80 76 76 76 73 69 70 70 72 73 72 74 74 71 69 67 75 75 72 70 65 70 82 74 81 78 81 83 75 65 59 58 63
68 73 70 68 69 67 73 72 69 72 74 76 74 77 75 74 74 75 77 77 77 78 77 74 64 68 78 74 76 66 73 76 78 76 75 78 77 76 78 74 63 56 61
69 72 73 71 72 70 76 74 78 77 77 76 79 76 77 77 76 77 80 80 82 82 80 77 73 70 73 75 78 77 76 75 75 84 83 79 70 75 83 75 75 65 58
75 75 75 75 74 74 77 77 78 78 80 84 83 84 84 84 83 81 80 85 84 82 81 79 75 72 71 72 76 78 77 75 71 76 86 86 82 71 76 81 78 70 66
Wind_Speed
5 7 13 14 13 12 11 11 10 8 7 7 7 7 6 7 7 7 7 7 7 8 8 8 6 6 6 6 6 6 5 5 5 5 6 7 6 6 4 4 5 3 4
12 9 14 14 13 12 11 10 9 7 7 7 10 14 13 13 14 12 12 12 11 11 10 8 6 7 5 4 4 4 4 4 4 4 4 5 6 7 4 1 2 2 2
12 11 11 14 13 12 11 10 11 11 11 11 11 11 11 11 12 11 12 12 11 10 10 11 12 12 10 7 6 5 5 4 4 5 6 4 4 8 8 4 2 1 1
13 10 9 13 13 12 13 12 12 11 11 11 11 11 10 11 11 11 11 11 11 11 11 10 10 11 11 11 12 11 8 7 4 7 4 3 5 11 10 7 4 2 3
11 9 9 13 13 13 13 13 12 11 11 11 10 10 10 10 10 10 11 11 11 11 11 11 11 11 11 11 11 11 10 11 10 6 5 5 4 7 10 8 5 4 3
11 11 13 14 14 14 13 12 11 11 10 10 9 9 9 9 11 11 12 12 12 12 12 12 12 11 11 11 11 11 11 11 10 6 5 6 6 9 9 9 6 5 4
11 11 12 15 14 14 13 13 11 10 10 9 9 9 10 11 12 12 12 12 12 12 12 12 12 12 12 11 10 10 10 9 5 5 6 5 6 14 10 10 6 5 5
15 9 10 14 13 12 12 11 11 10 9 9 10 11 11 11 12 12 12 12 13 13 13 13 13 13 13 13 12 9 9 8 5 6 6 6 10 14 12 6 4 5 7
11 10 7 7 10 12 11 10 11 11 11 10 9 8 8 7 8 11 11 11 12 13 11 12 13 12 13 13 14 13 9 9 6 4 5 4 9 11 6 6 6 9 8
8 7 7 6 6 6 5 10 9 9 9 8 7 4 4 5 6 7 8 11 11 13 13 13 13 14 15 14 13 13 10 11 6 4 4 6 11 12 12 11 9 10 11
5 6 6 6 5 6 6 5 6 7 8 9 9 8 6 4 5 6 8 11 14 14 14 15 14 15 14 13 13 12 10 4 4 4 3 12 13 13 12 10 10 10 10
5 5 5 6 6 5 4 5 4 5 4 4 5 5 4 5 5 6 8 12 14 14 14 15 14 14 10 4 4 8 4 5 4 4 4 12 13 13 12 12 11 11 10
5 4 5 6 6 5 4 4 3 3 3 3 6 5 4 5 4 4 4 4 4 9 4 7 6 4 7 5 5 5 4 4 3 4 9 15 15 15 15 14 16 15 14
6 5 5 5 5 5 4 3 4 4 3 3 3 5 4 3 4 4 3 4 4 4 6 5 4 6 6 6 6 6 6 4 3 3 8 15 16 16 14 15 15 14 15
6 5 5 5 4 4 5 3 4 4 4 3 4 4 4 4 4 3 4 3 4 4 4 5 5 5 5 6 5 6 6 5 5 3 3 13 16 16 12 13 14 14 15
7 7 6 5 4 5 4 4 4 3 4 3 3 3 6 3 3 4 4 4 4 4 4 4 4 4 4 4 6 6 5 5 5 4 4 7 17 17 14 14 14 15 15
6 6 7 6 5 5 5 4 4 3 3 3 3 3 5 4 4 4 3 4 4 4 5 4 5 4 5 5 6 5 4 5 4 5 5 4 6 12 13 13 13 13 14
7 8 7 5 6 5 5 3 4 3 3 3 2 2 3 4 4 4 3 3 4 4 3 4 4 4 4 4 3 4 3 4 6 5 4 4 4 4 7 11 12 12 14
8 8 7 7 7 6 5 3 4 4 3 2 2 2 2 3 4 4 2 3 4 3 4 3 2 2 3 4 3 3 2 2 4 4 5 5 5 4 3 9 11 11 12
8 7 7 5 7 6 4 3 2 2 2 2 2 2 3 2 3 3 2 3 3 3 4 4 3 3 2 3 3 3 2 1 1 3 4 3 4 4 4 5 4 5 11
7 7 7 7 6 4 2 2 1 1 1 1 2 2 3 2 2 2 1 2 2 2 3 3 3 5 3 4 3 4 3 2 1 1 2 3 4 3 3 4 3 3 4
8 8 7 7 7 4 2 2 2 2 2 1 1 1 2 2 2 2 2 1 0 1 3 2 3 2 2 3 2 1 3 4 3 2 1 2 4 3 3 4 4 4 3
8 9 8 7 7 5 5 3 2 3 2 1 1 1 2 3 3 3 4 3 3 2 2 2 1 1 1 2 2 2 2 2 3 2 1 0 3 1 2 3 3 3 3
8 7 7 7 7 5 6 3 3 3 2 2 1 1 2 3 5 5 5 5 4 3 4 3 2 2 2 2 3 1 1 2 1 4 2 1 1 3 3 2 3 2 2
7 8 7 7 6 6 6 5 4 2 2 0 0 2 3 4 5 6 6 5 5 4 4 4 3 2 1 1 2 1 1 1 1 2 4 4 2 2 3 4 4 3 3
5 6 6 7 6 6 6 6 6 6 3 1 1 2 3 2 3 4 4 5 5 5 5 4 4 4 3 3 3 3 3 3 2 2 3 3 3 4 1 3 3 3 2
Wind_Direction
162 143 141 136 129 122 117 111 105 100 94 89 89 87 85 84 81 76 69 60 48 40 40 40 64 62 50 42 40 35 34 29 20 7 358 349 341 342 20 49 72 68 65
140 141 142 136 130 124 119 113 109 104 91 80 73 65 59 56 56 58 56 49 42 39 34 30 22 20 22 16 7 3 4 6 352 337 335 323 308 294 289 346 54 58 61
132 137 133 128 129 127 125 122 101 85 77 76 76 69 64 61 58 53 48 46 42 35 28 22 16 22 18 354 335 321 320 322 323 316 319 322 295 279 255 235 226 270 315
124 119 124 130 134 128 111 102 96 88 84 82 78 72 64 58 53 48 42 37 32 29 25 21 17 15 15 4 1 0 332 318 309 311 317 300 300 309 222 218 227 244 288
115 123 132 131 121 115 109 103 99 94 89 84 79 75 66 59 54 45 39 33 27 22 19 13 8 3 5 360 354 358 352 359 353 325 310 306 297 293 219 210 224 240 284
110 113 113 114 117 112 106 101 98 94 88 83 78 74 69 63 59 47 44 35 31 27 22 17 11 6 358 353 345 344 349 351 342 330 315 312 314 300 228 221 222 233 243
113 114 114 120 120 116 111 107 101 94 90 86 80 75 71 67 63 51 46 41 37 32 27 24 16 17 12 5 354 345 340 337 331 324 315 312 297 302 274 224 234 252 260
122 111 116 118 115 110 107 107 105 101 95 92 90 82 75 70 67 56 51 45 42 35 26 26 18 17 16 13 4 354 348 328 338 319 310 304 301 308 305 227 230 262 276
108 111 102 105 113 113 110 111 109 104 97 95 95 92 83 71 68 58 48 39 35 26 27 20 11 21 15 13 12 15 356 336 353 325 312 291 294 314 2 36 14 359 348
109 112 115 108 111 112 117 119 115 104 86 71 63 91 110 51 52 45 40 31 34 28 25 25 19 18 12 6 11 17 17 17 4 14 354 21 55 49 47 40 33 27 17
99 121 125 130 128 131 129 130 110 98 74 62 56 58 64 43 51 42 34 42 38 34 27 23 22 18 14 5 359 7 19 11 35 24 6 33 41 37 36 30 32 27 29
123 127 145 143 142 152 131 111 102 96 83 70 59 63 75 63 51 56 40 41 39 30 25 21 21 16 11 358 352 0 12 28 36 20 10 30 38 41 40 36 32 31 28
137 122 136 141 137 134 130 123 103 94 86 67 59 62 57 62 42 45 44 25 25 25 19 15 7 6 8 8 354 349 7 45 44 31 33 44 43 36 35 34 39 39 36
144 139 127 115 116 118 114 113 120 108 96 77 68 63 64 56 46 47 48 27 35 18 14 13 3 355 5 4 5 354 25 56 60 47 44 51 50 40 23 27 32 30 30
140 146 140 125 123 123 105 104 99 105 94 110 81 71 77 65 61 55 40 30 34 17 19 3 9 3 8 356 355 6 31 85 84 73 54 51 52 46 35 36 33 32 30
150 154 149 138 140 129 115 126 114 121 121 108 89 91 79 81 75 61 41 27 29 19 4 1 5 4 1 356 7 13 46 91 80 81 77 54 57 56 38 36 30 26 24
166 152 157 151 147 134 134 132 111 146 139 115 107 96 87 78 71 68 44 29 21 12 1 8 4 12 4 3 31 28 48 89 78 58 61 75 61 56 52 46 41 35 28
155 163 164 156 149 148 137 149 124 142 125 121 130 93 98 84 77 64 41 26 9 16 8 1 7 360 3 15 360 25 28 84 85 83 88 86 75 73 58 52 39 37 30
170 163 171 162 159 161 143 149 125 131 125 123 130 115 113 91 78 78 46 11 19 14 9 354 339 360 6 349 347 44 48 40 124 112 108 103 103 92 78 66 52 40 30
166 166 166 166 162 161 132 114 82 105 103 117 156 161 124 114 92 78 45 16 25 16 1 1 346 339 11 334 343 19 334 347 354 117 126 114 108 96 92 80 60 35 42
163 165 176 169 175 147 140 135 108 176 139 196 195 175 157 161 141 96 57 14 20 20 357 341 328 11 332 341 22 5 358 334 269 152 156 147 143 127 100 84 79 58 31
171 180 180 182 167 177 160 180 167 159 169 157 136 225 232 198 195 188 186 244 295 1 351 344 26 347 306 4 65 83 357 329 337 348 58 147 174 148 130 106 94 84 63
180 186 185 188 175 179 176 122 78 57 46 44 309 279 252 231 229 219 221 210 222 187 238 242 201 134 302 320 25 136 7 277 328 328 344 1 155 165 160 139 122 115 97
199 180 190 186 176 179 170 157 151 164 167 219 182 242 287 256 250 243 235 222 224 219 226 234 196 186 129 269 333 6 208 180 226 326 322 335 278 198 198 200 150 128 108
177 187 198 185 179 169 170 163 155 173 204 174 270 293 290 283 265 264 250 245 243 237 242 231 240 215 173 174 208 329 330 314 233 202 285 311 332 245 222 199 187 180 159
195 191 192 177 181 167 171 174 179 188 186 186 261 284 289 297 311 316 293 252 246 248 241 233 226 216 213 214 215 218 216 211 215 193 247 272 253 295 266 209 187 196 192